COSMOS 249 DEB, 15535

Orbit data source: Space-Track

COSMOS 249 DEB, 15535 is space debris in LEO originally from a launch on Sun, 20 Oct 1968 UTC launched from the Tyuratam Missile And Space Complex (TTMTR). Debris objects in space refer to the collection of defunct objects orbiting the Earth. Examples of debris include non-operational satellites, rocket bodies, and fragments generated from explosions, collisions, or faulty payload assembly.

Loading next visibility...
Identifier
15535, 1968-091CY
Orbit
LEO
Country
Flag of CISCIS
Related business
Manufacturer
Unknown
Mission
Spacecraft
Bus & Motor
Unknown
Mass
Unknown
Launch date (UTC)
1968-10-20 (58 years ago)
Launch vehicle
Unknown
Launch site
Tyuratam Missile And Space Complex (TTMTR)
Object type
Payload
Rocket body
Debris
Shape & HBR
Unknown shape, 0.1 m
Radar Cross Section
Small (<0.1 m²)

Expand to show TLE details & history
Last TLE update: 20 hours ago

TLE from 20 hours ago
0 COSMOS 249 DEB
1 15535U 68091CY  26171.39224343  .00009118  00000-0  11073-2 0  9993
2 15535  62.3973 293.6599 0317906 202.1623 156.5450 14.54171275957291
Epoch: 2026-06-20T09:24Z
TLE epoch observation values (Epoch: 2026-06-20T09:24:49.832Z)
Latitude
-0.00007°
Longitude
-116.1553°
Altitude
921.706 km
Speed
7.283 km/s
True Right ascension
19h 34m 38s
True Declination
0° 00' 00"
Sunlit
Object was in full shadow at epoch
Visualization orbit readout
Latitude
Unknown
Longitude
Unknown
Altitude
Unknown
Speed
Unknown
Apparent Right ascension
Unknown
Apparent Declination
Unknown
Sunlit
N/A
Visualization observer readout
Local Sidereal Time
16:49:51
Azimuth
Unknown
Elevation
Unknown
Doppler factor
Unknown
Orbital elements
Apogee altitude
936.321 km
Perigee altitude
485.588 km
Semi-major axis
7,089.092 km
Eccentricity
0.03179
Inclination
62.3973°
RAAN
293.6599°
Arg. of periapsis
202.1623°
True anomaly
157.94379°
Mean anomaly
156.545°
Eccentric anomaly
157.2494°
Mean motion
3.63628 °/min
Orbital period
99 mins
BSTAR
0.0011073
Loading maneuver chart data...
Computing Atmospheric mass density...

Documentation

Showing up to 5 results
|